START_TIME,STEP,MOV.,M6,t_acc.,M7,t_acc.,M19,t_acc.,H36,t_acc.
1986-01-26 09:00:28.410 ,1,0,0.,12.0,0.,12.0,0.,12.0,0.,12.0
1986-01-26 09:00:40.410 ,1,0,0.,12.0,0.,12.0,0.,12.0,0.,12.0
1986-01-26 09:00:52.410 ,0,1,0.,12.0,0.,12.0,0.,12.0,0.,12.0
1986-01-26 09:01:04.410 ,0,1,0.,12.0,0.,12.0,0.,12.0,0.,12.0
1986-01-26 09:01:16.410 ,0,0,0.,12.0,0.,12.0,0.,12.0,0.,12.0
1986-01-26 09:01:28.410 ,0,0,0.,12.0,0.,12.0,0.,12.0,0.,12.0
1986-01-26 09:01:40.410 ,0,1,0.,12.0,0.,12.0,0.,12.0,0.,12.0
1986-01-26 09:01:52.410 ,0,1,0.,12.0,0.,12.0,0.,12.0,0.,12.0
1986-01-26 09:02:04.410 ,0,0,0.,12.0,0.,12.0,0.,12.0,0.,12.0
1986-01-26 09:02:16.410 ,0,0,0.,12.0,0.,12.0,0.,12.0,0.,12.0
1986-01-26 09:02:28.410 ,1,1,0.,12.0,0.,12.0,0.,12.0,0.,12.0
1986-01-26 09:02:40.410 ,1,1,0.,12.0,0.,12.0,0.,12.0,0.,12.0
1986-01-26 09:02:52.410 ,1,0,0.,12.0,0.,12.0,0.,12.0,0.,12.0
1986-01-26 09:03:04.410 ,1,0,0.,12.0,0.,12.0,0.,12.0,0.,12.0
1986-01-26 09:03:16.410 ,2,1,0.,12.0,0.,12.0,0.,12.0,0.,12.0
1986-01-26 09:03:28.410 ,2,1,0.,12.0,0.,12.0,0.,12.0,0.,12.0
1986-01-26 09:03:40.410 ,2,0,0.,12.0,0.,12.0,0.,12.0,0.,12.0
1986-01-26 09:03:52.410 ,2,0,0.,12.0,0.,12.0,0.,12.0,0.,12.0
1986-01-26 09:04:04.410 ,3,1,0.,12.0,0.,12.0,0.,12.0,0.,12.0
1986-01-26 09:04:16.410 ,3,1,0.,12.0,0.,12.0,0.,12.0,0.,12.0
1986-01-26 09:04:28.410 ,3,0,0.,12.0,0.,12.0,0.,12.0,0.,12.0
1986-01-26 09:04:40.410 ,3,0,0.,12.0,0.,12.0,0.,12.0,0.,12.0
1986-01-26 09:04:52.410 ,4,1,0.,12.0,0.,12.0,0.,12.0,0.,12.0
1986-01-26 09:05:04.410 ,4,1,0.,12.0,0.,12.0,0.,12.0,0.,12.0
1986-01-26 09:05:16.410 ,4,0,0.,12.0,0.,12.0,0.,12.0,0.,12.0
1986-01-26 09:05:28.410 ,4,0,0.,12.0,0.,12.0,0.,12.0,0.,12.0
1986-01-26 09:05:40.410 ,5,1,0.,12.0,0.,12.0,0.,12.0,0.,12.0
1986-01-26 09:05:52.410 ,5,1,0.,12.0,0.,12.0,0.,12.0,0.,12.0
1986-01-26 09:06:04.410 ,5,0,0.,12.0,0.,12.0,0.,12.0,0.,12.0
1986-01-26 09:06:16.410 ,5,0,0.,12.0,0.,12.0,0.,12.0,0.,12.0
1986-01-26 09:06:28.410 ,6,1,0.,12.0,0.,12.0,0.,12.0,0.,12.0
1986-01-26 09:06:40.410 ,6,1,0.,12.0,0.,12.0,0.,12.0,0.,12.0
1986-01-26 09:06:52.410 ,6,0,0.,12.0,0.,12.0,0.,12.0,0.,12.0
1986-01-26 09:07:04.410 ,6,0,0.,12.0,0.,12.0,0.,12.0,0.,12.0
1986-01-26 09:07:16.410 ,7,1,0.,12.0,0.,12.0,0.,12.0,0.,12.0
1986-01-26 09:07:28.410 ,7,1,0.,12.0,0.,12.0,0.,12.0,0.,12.0
1986-01-26 09:07:40.410 ,7,0,0.,12.0,0.,12.0,0.,12.0,0.,12.0
1986-01-26 09:07:52.410 ,7,0,0.,12.0,0.,12.0,0.,12.0,0.,12.0
1986-01-26 09:08:04.410 ,7,1,0.,12.0,0.,12.0,0.,12.0,0.,12.0
1986-01-26 09:08:16.410 ,7,1,0.,12.0,0.,12.0,0.,12.0,0.,12.0
1986-01-26 09:08:28.410 ,7,0,0.,12.0,0.,12.0,0.,12.0,0.,12.0
1986-01-26 09:08:40.410 ,7,0,0.,12.0,0.,12.0,0.,12.0,0.,12.0
1986-01-26 09:08:52.410 ,6,1,0.,12.0,0.,12.0,0.,12.0,0.,12.0
1986-01-26 09:09:04.410 ,6,1,0.,12.0,0.,12.0,0.,12.0,0.,12.0
1986-01-26 09:09:16.410 ,6,0,0.,12.0,0.,12.0,0.,12.0,0.,12.0
1986-01-26 09:09:28.410 ,6,0,0.,12.0,0.,12.0,0.,12.0,0.,12.0
1986-01-26 09:09:40.410 ,5,1,0.,12.0,0.,12.0,0.,12.0,0.,12.0
1986-01-26 09:09:52.410 ,5,1,0.,12.0,0.,12.0,0.,12.0,0.,12.0
1986-01-26 09:10:04.410 ,5,0,0.,12.0,0.,12.0,0.,12.0,0.,12.0
1986-01-26 09:10:16.410 ,5,0,0.,12.0,0.,12.0,0.,12.0,0.,12.0
1986-01-26 09:10:28.410 ,4,1,0.,12.0,0.,12.0,0.,12.0,0.,12.0
1986-01-26 09:10:40.410 ,4,1,0.,12.0,0.,12.0,0.,12.0,0.,12.0
1986-01-26 09:10:52.410 ,4,0,0.,12.0,0.,12.0,0.,12.0,0.,12.0
1986-01-26 09:11:04.410 ,4,0,0.,12.0,0.,12.0,0.,12.0,0.,12.0
1986-01-26 09:11:16.410 ,3,1,0.,12.0,0.,12.0,0.,12.0,0.,12.0
1986-01-26 09:11:28.410 ,3,1,0.,12.0,0.,12.0,0.,12.0,0.,12.0
1986-01-26 09:11:40.410 ,3,0,0.,12.0,0.,12.0,0.,12.0,0.,12.0
1986-01-26 09:11:52.410 ,3,0,0.,12.0,0.,12.0,0.,12.0,0.,12.0
1986-01-26 09:12:04.410 ,0,0,0.,12.0,0.,12.0,0.,12.0,0.,12.0
1986-01-26 09:12:16.410 ,0,0,0.,12.0,0.,12.0,0.,12.0,0.,12.0
1986-01-26 09:12:28.410 ,0,0,0.,12.0,0.,12.0,0.,12.0,0.,12.0
1986-01-26 09:12:40.410 ,0,0,0.,12.0,0.,12.0,0.,12.0,0.,12.0
1986-01-26 09:12:52.410 ,1,1,0.,12.0,0.,12.0,0.,12.0,0.,12.0
1986-01-26 09:13:04.410 ,1,1,0.,12.0,0.,12.0,0.,12.0,0.,12.0
1986-01-26 09:13:16.410 ,1,0,0.,12.0,0.,12.0,0.,12.0,0.,12.0
1986-01-26 09:13:28.410 ,1,0,0.,12.0,0.,12.0,0.,12.0,0.,12.0
1986-01-26 09:13:40.410 ,0,1,0.,12.0,0.,12.0,0.,12.0,0.,12.0
1986-01-26 09:13:52.410 ,0,1,0.,12.0,0.,12.0,0.,12.0,0.,12.0
1986-01-26 09:14:04.410 ,0,0,0.,12.0,0.,12.0,0.,12.0,0.,12.0
1986-01-26 09:14:16.410 ,0,0,0.,12.0,0.,12.0,0.,12.0,0.,12.0
1986-01-26 09:14:28.410 ,0,1,0.,12.0,0.,12.0,0.,12.0,0.,12.0
1986-01-26 09:14:40.410 ,0,1,0.,12.0,0.,12.0,0.,12.0,0.,12.0
1986-01-26 09:14:52.410 ,0,0,0.,12.0,0.,12.0,0.,12.0,0.,12.0
1986-01-26 09:15:04.410 ,0,0,0.,12.0,0.,12.0,0.,12.0,0.,12.0
1986-01-26 09:15:16.410 ,1,1,0.,12.0,0.,12.0,0.,12.0,0.,12.0
1986-01-26 09:15:28.410 ,1,1,0.,12.0,0.,12.0,0.,12.0,0.,12.0
1986-01-26 09:15:40.410 ,1,0,0.,12.0,0.,12.0,0.,12.0,0.,12.0
1986-01-26 09:15:52.410 ,1,0,0.,12.0,0.,12.0,0.,12.0,0.,12.0
1986-01-26 09:16:04.410 ,2,1,0.,12.0,0.,12.0,0.,12.0,0.,12.0
1986-01-26 09:16:16.410 ,2,1,0.,12.0,0.,12.0,0.,12.0,0.,12.0
1986-01-26 09:16:28.410 ,2,0,0.,12.0,0.,12.0,0.,12.0,0.,12.0
1986-01-26 09:16:40.410 ,2,0,0.,12.0,0.,12.0,0.,12.0,0.,12.0
1986-01-26 09:16:52.410 ,3,1,0.,12.0,0.,12.0,0.,12.0,0.,12.0
1986-01-26 09:17:04.410 ,3,1,0.,12.0,0.,12.0,0.,12.0,0.,12.0
1986-01-26 09:17:16.410 ,3,0,0.,12.0,0.,12.0,0.,12.0,0.,12.0
1986-01-26 09:17:28.410 ,3,0,0.,12.0,0.,12.0,0.,12.0,0.,12.0
1986-01-26 09:17:40.410 ,4,1,0.,12.0,0.,12.0,0.,12.0,0.,12.0
1986-01-26 09:17:52.410 ,4,1,0.,12.0,0.,12.0,0.,12.0,0.,12.0
1986-01-26 09:18:04.410 ,4,0,0.,12.0,0.,12.0,0.,12.0,0.,12.0
1986-01-26 09:18:16.410 ,4,0,0.,12.0,0.,12.0,0.,12.0,0.,12.0
1986-01-26 09:18:28.410 ,5,1,0.,12.0,0.,12.0,0.,12.0,0.,12.0
1986-01-26 09:18:40.410 ,5,1,0.,12.0,0.,12.0,0.,12.0,0.,12.0
1986-01-26 09:18:52.410 ,5,0,0.,12.0,0.,12.0,0.,12.0,0.,12.0
1986-01-26 09:19:04.410 ,5,0,0.,12.0,0.,12.0,0.,12.0,0.,12.0
1986-01-26 09:19:16.410 ,6,1,0.,12.0,0.,12.0,0.,12.0,0.,12.0
1986-01-26 09:19:28.410 ,6,1,0.,12.0,0.,12.0,0.,12.0,0.,12.0
1986-01-26 09:19:40.410 ,6,0,0.,12.0,0.,12.0,0.,12.0,0.,12.0
1986-01-26 09:19:52.410 ,6,0,0.,12.0,0.,12.0,0.,12.0,0.,12.0
1986-01-26 09:20:04.410 ,7,1,0.,12.0,0.,12.0,0.,12.0,0.,12.0
1986-01-26 09:20:16.410 ,7,1,0.,12.0,0.,12.0,0.,12.0,0.,12.0
1986-01-26 09:20:28.410 ,7,0,0.,12.0,0.,12.0,0.,12.0,0.,12.0
1986-01-26 09:20:40.410 ,7,0,0.,12.0,0.,12.0,0.,12.0,0.,12.0
1986-01-26 09:20:52.410 ,7,1,0.,12.0,0.,12.0,0.,12.0,0.,12.0
1986-01-26 09:21:04.410 ,7,1,0.,12.0,0.,12.0,0.,12.0,0.,12.0
1986-01-26 09:21:16.410 ,7,0,0.,12.0,0.,12.0,0.,12.0,0.,12.0
1986-01-26 09:21:28.410 ,7,0,0.,12.0,0.,12.0,0.,12.0,0.,12.0
1986-01-26 09:21:40.410 ,6,1,0.,12.0,0.,12.0,0.,12.0,0.,12.0
1986-01-26 09:21:52.410 ,6,1,0.,12.0,0.,12.0,0.,12.0,0.,12.0
1986-01-26 09:22:04.410 ,6,0,0.,12.0,0.,12.0,0.,12.0,0.,12.0
1986-01-26 09:22:16.410 ,6,0,0.,12.0,0.,12.0,0.,12.0,0.,12.0
1986-01-26 09:22:28.410 ,5,1,0.,12.0,0.,12.0,0.,12.0,0.,12.0
1986-01-26 09:22:40.410 ,5,1,0.,12.0,0.,12.0,0.,12.0,0.,12.0
1986-01-26 09:22:52.410 ,5,0,0.,12.0,0.,12.0,0.,12.0,0.,12.0
1986-01-26 09:23:04.410 ,5,0,0.,12.0,0.,12.0,0.,12.0,0.,12.0
1986-01-26 09:23:16.410 ,4,1,0.,12.0,0.,12.0,0.,12.0,0.,12.0
1986-01-26 09:23:28.410 ,4,1,0.,12.0,0.,12.0,0.,12.0,0.,12.0
1986-01-26 09:23:40.410 ,4,0,0.,12.0,0.,12.0,0.,12.0,0.,12.0
1986-01-26 09:23:52.410 ,4,0,0.,12.0,0.,12.0,0.,12.0,0.,12.0
1986-01-26 09:24:04.410 ,3,1,0.,12.0,0.,12.0,0.,12.0,0.,12.0
1986-01-26 09:24:16.410 ,3,1,0.,12.0,0.,12.0,0.,12.0,0.,12.0
1986-01-26 09:24:28.410 ,3,0,0.,12.0,0.,12.0,0.,12.0,0.,12.0
1986-01-26 09:24:40.410 ,3,0,0.,12.0,0.,12.0,0.,12.0,0.,12.0
1986-01-26 09:24:52.410 ,2,1,0.,12.0,0.,12.0,0.,12.0,0.,12.0
1986-01-26 09:25:04.410 ,2,1,0.,12.0,0.,12.0,0.,12.0,0.,12.0
1986-01-26 09:25:16.410 ,2,0,0.,12.0,0.,12.0,0.,12.0,0.,12.0
1986-01-26 09:25:28.410 ,2,0,0.,12.0,0.,12.0,0.,12.0,0.,12.0
1986-01-26 09:25:40.410 ,1,1,0.,12.0,0.,12.0,0.,12.0,0.,12.0
1986-01-26 09:25:52.410 ,1,1,0.,12.0,0.,12.0,0.,12.0,0.,12.0
1986-01-26 09:26:04.410 ,1,0,0.,12.0,0.,12.0,0.,12.0,0.,12.0
1986-01-26 09:26:16.410 ,1,0,0.,12.0,0.,12.0,0.,12.0,0.,12.0
1986-01-26 09:26:28.410 ,0,1,0.,12.0,0.,12.0,0.,12.0,0.,12.0
1986-01-26 09:26:40.410 ,0,1,0.,12.0,0.,12.0,0.,12.0,0.,12.0
1986-01-26 09:26:52.410 ,0,0,0.,12.0,0.,12.0,0.,12.0,0.,12.0
1986-01-26 09:27:04.410 ,0,0,0.,12.0,0.,12.0,0.,12.0,0.,12.0
1986-01-26 09:27:16.410 ,0,1,0.,12.0,0.,12.0,0.,12.0,0.,12.0
1986-01-26 09:27:28.410 ,0,1,0.,12.0,0.,12.0,0.,12.0,0.,12.0
1986-01-26 09:27:40.410 ,0,0,0.,12.0,0.,12.0,0.,12.0,0.,12.0
1986-01-26 09:27:52.410 ,0,0,0.,12.0,0.,12.0,0.,12.0,0.,12.0
1986-01-26 09:28:04.410 ,1,1,0.,12.0,0.,12.0,0.,12.0,0.,12.0
1986-01-26 09:28:16.410 ,1,1,0.,12.0,0.,12.0,0.,12.0,0.,12.0
1986-01-26 09:28:28.410 ,1,0,0.,12.0,0.,12.0,0.,12.0,0.,12.0
1986-01-26 09:28:40.410 ,1,0,0.,12.0,0.,12.0,0.,12.0,0.,12.0
1986-01-26 09:28:52.410 ,2,1,0.,12.0,0.,12.0,0.,12.0,0.,12.0
1986-01-26 09:29:04.410 ,2,1,0.,12.0,0.,12.0,0.,12.0,0.,12.0
1986-01-26 09:29:16.410 ,2,0,0.,12.0,0.,12.0,0.,12.0,0.,12.0
1986-01-26 09:29:28.410 ,2,0,0.,12.0,0.,12.0,0.,12.0,0.,12.0
1986-01-26 09:29:40.410 ,3,1,0.,12.0,0.,12.0,0.,12.0,0.,12.0
1986-01-26 09:29:52.410 ,3,1,0.,12.0,0.,12.0,0.,12.0,0.,12.0
1986-01-26 09:30:04.410 ,3,0,0.,12.0,0.,12.0,0.,12.0,0.,12.0
1986-01-26 09:30:16.410 ,3,0,0.,12.0,0.,12.0,0.,12.0,0.,12.0
1986-01-26 09:30:28.410 ,4,1,0.,12.0,0.,12.0,0.,12.0,0.,12.0
1986-01-26 09:30:40.410 ,4,1,0.,12.0,0.,12.0,0.,12.0,0.,12.0
1986-01-26 09:30:52.410 ,4,0,0.,12.0,0.,12.0,0.,12.0,0.,12.0
1986-01-26 09:31:04.410 ,4,0,0.,12.0,0.,12.0,0.,12.0,0.,12.0
1986-01-26 09:31:16.410 ,5,1,0.,12.0,0.,12.0,0.,12.0,0.,12.0
1986-01-26 09:31:28.410 ,5,1,0.,12.0,0.,12.0,0.,12.0,0.,12.0
1986-01-26 09:31:40.410 ,5,0,0.,12.0,0.,12.0,0.,12.0,0.,12.0
1986-01-26 09:31:52.410 ,5,0,0.,12.0,0.,12.0,0.,12.0,0.,12.0
1986-01-26 09:32:04.410 ,6,1,0.,12.0,0.,12.0,0.,12.0,0.,12.0
1986-01-26 09:32:16.410 ,6,1,0.,12.0,0.,12.0,0.,12.0,0.,12.0
1986-01-26 09:32:28.410 ,6,0,0.,12.0,0.,12.0,0.,12.0,0.,12.0
1986-01-26 09:32:40.410 ,6,0,0.,12.0,0.,12.0,0.,12.0,0.,12.0
1986-01-26 09:32:52.410 ,7,1,0.,12.0,0.,12.0,0.,12.0,0.,12.0
1986-01-26 09:33:04.410 ,7,1,0.,12.0,0.,12.0,0.,12.0,0.,12.0
1986-01-26 09:33:16.410 ,7,0,0.,12.0,0.,12.0,0.,12.0,0.,12.0
1986-01-26 09:33:28.410 ,7,0,0.,12.0,0.,12.0,0.,12.0,0.,12.0
1986-01-26 09:33:40.410 ,7,1,0.,12.0,0.,12.0,0.,12.0,0.,12.0
1986-01-26 09:33:52.410 ,7,1,0.,12.0,0.,12.0,0.,12.0,0.,12.0
1986-01-26 09:34:04.410 ,7,0,0.,12.0,0.,12.0,0.,12.0,0.,12.0
1986-01-26 09:34:16.410 ,7,0,0.,12.0,0.,12.0,0.,12.0,0.,12.0
1986-01-26 09:34:28.410 ,6,1,0.,12.0,0.,12.0,0.,12.0,0.,12.0
1986-01-26 09:34:40.410 ,6,1,0.,12.0,0.,12.0,0.,12.0,0.,12.0
1986-01-26 09:34:52.410 ,6,0,0.,12.0,0.,12.0,0.,12.0,0.,12.0
1986-01-26 09:35:04.410 ,6,0,0.,12.0,0.,12.0,0.,12.0,0.,12.0
1986-01-26 09:35:16.410 ,5,1,0.,12.0,0.,12.0,0.,12.0,0.,12.0
1986-01-26 09:35:28.410 ,5,1,0.,12.0,0.,12.0,0.,12.0,0.,12.0
1986-01-26 09:35:40.410 ,5,0,0.,12.0,0.,12.0,0.,12.0,0.,12.0
1986-01-26 09:35:52.410 ,5,0,0.,12.0,0.,12.0,0.,12.0,0.,12.0
1986-01-26 09:36:04.410 ,4,1,0.,12.0,0.,12.0,0.,12.0,0.,12.0
1986-01-26 09:36:16.410 ,4,1,0.,12.0,0.,12.0,0.,12.0,0.,12.0
1986-01-26 09:36:28.410 ,4,0,0.,12.0,0.,12.0,0.,12.0,0.,12.0
1986-01-26 09:36:40.410 ,4,0,0.,12.0,0.,12.0,0.,12.0,0.,12.0
1986-01-26 09:36:52.410 ,3,1,0.,12.0,0.,12.0,0.,12.0,0.,12.0
1986-01-26 09:37:04.410 ,3,1,0.,12.0,0.,12.0,0.,12.0,0.,12.0
1986-01-26 09:37:16.410 ,3,0,0.,12.0,0.,12.0,0.,12.0,0.,12.0
1986-01-26 09:37:28.410 ,3,0,0.,12.0,0.,12.0,0.,12.0,0.,12.0
1986-01-26 09:37:40.410 ,2,1,0.,12.0,0.,12.0,0.,12.0,0.,12.0
1986-01-26 09:37:52.410 ,2,1,0.,12.0,0.,12.0,0.,12.0,0.,12.0
1986-01-26 09:38:04.410 ,2,0,0.,12.0,0.,12.0,0.,12.0,0.,12.0
1986-01-26 09:38:16.410 ,2,0,0.,12.0,0.,12.0,0.,12.0,0.,12.0
1986-01-26 09:38:28.410 ,1,1,0.,12.0,0.,12.0,0.,12.0,0.,12.0
1986-01-26 09:38:40.410 ,1,1,0.,12.0,0.,12.0,0.,12.0,0.,12.0
1986-01-26 09:38:52.410 ,1,0,0.,12.0,0.,12.0,0.,12.0,0.,12.0
1986-01-26 09:39:04.410 ,1,0,0.,12.0,0.,12.0,0.,12.0,0.,12.0
1986-01-26 09:39:16.400 ,0,1,0.,12.0,0.,12.0,0.,12.0,0.,12.0
1986-01-26 09:39:28.400 ,0,1,0.,12.0,0.,12.0,0.,12.0,0.,12.0
1986-01-26 09:39:40.400 ,0,0,0.,12.0,0.,12.0,0.,12.0,0.,12.0
1986-01-26 09:39:52.400 ,0,0,0.,12.0,0.,12.0,0.,12.0,0.,12.0
1986-01-26 09:40:04.400 ,0,1,0.,12.0,0.,12.0,0.,12.0,0.,12.0
1986-01-26 09:40:16.400 ,0,1,0.,12.0,0.,12.0,0.,12.0,0.,12.0
1986-01-26 09:40:28.400 ,0,0,0.,12.0,0.,12.0,0.,12.0,0.,12.0
1986-01-26 09:40:40.400 ,0,0,0.,12.0,0.,12.0,0.,12.0,0.,12.0
1986-01-26 09:40:52.400 ,1,1,0.,12.0,0.,12.0,0.,12.0,0.,12.0
1986-01-26 09:41:04.400 ,1,1,0.,12.0,0.,12.0,0.,12.0,0.,12.0
1986-01-26 09:41:16.400 ,1,0,0.,12.0,0.,12.0,0.,12.0,0.,12.0
1986-01-26 09:41:28.400 ,1,0,0.,12.0,0.,12.0,0.,12.0,0.,12.0
1986-01-26 09:41:40.400 ,2,1,0.,12.0,0.,12.0,0.,12.0,0.,12.0
1986-01-26 09:41:52.400 ,2,1,0.,12.0,0.,12.0,0.,12.0,0.,12.0
1986-01-26 09:42:04.400 ,2,0,0.,12.0,0.,12.0,0.,12.0,0.,12.0
1986-01-26 09:42:16.400 ,2,0,0.,12.0,0.,12.0,0.,12.0,0.,12.0
1986-01-26 09:42:28.400 ,3,1,0.,12.0,0.,12.0,0.,12.0,0.,12.0
1986-01-26 09:42:40.400 ,3,1,0.,12.0,0.,12.0,0.,12.0,0.,12.0
1986-01-26 09:42:52.400 ,3,0,0.,12.0,0.,12.0,0.,12.0,0.,12.0
1986-01-26 09:43:04.400 ,3,0,0.,12.0,0.,12.0,0.,12.0,0.,12.0
1986-01-26 09:43:16.400 ,4,1,0.,12.0,0.,12.0,0.,12.0,0.,12.0
1986-01-26 09:43:28.400 ,4,1,0.,12.0,0.,12.0,0.,12.0,0.,12.0
1986-01-26 09:43:40.400 ,4,0,0.,12.0,0.,12.0,0.,12.0,0.,12.0
1986-01-26 09:43:52.400 ,4,0,0.,12.0,0.,12.0,0.,12.0,0.,12.0
1986-01-26 09:44:04.400 ,5,1,0.,12.0,0.,12.0,0.,12.0,0.,12.0
1986-01-26 09:44:16.400 ,5,1,0.,12.0,0.,12.0,0.,12.0,0.,12.0
1986-01-26 09:44:28.400 ,5,0,0.,12.0,0.,12.0,0.,12.0,0.,12.0
1986-01-26 09:44:40.400 ,5,0,0.,12.0,0.,12.0,0.,12.0,0.,12.0
1986-01-26 09:44:52.400 ,6,1,0.,12.0,0.,12.0,0.,12.0,0.,12.0
1986-01-26 09:45:04.400 ,6,1,0.,12.0,0.,12.0,0.,12.0,0.,12.0
1986-01-26 09:45:16.400 ,6,0,0.,12.0,0.,12.0,0.,12.0,0.,12.0
1986-01-26 09:45:28.400 ,6,0,0.,12.0,0.,12.0,0.,12.0,0.,12.0
1986-01-26 09:45:40.400 ,7,1,0.,12.0,0.,12.0,0.,12.0,0.,12.0
1986-01-26 09:45:52.400 ,7,1,0.,12.0,0.,12.0,0.,12.0,0.,12.0
1986-01-26 09:46:04.400 ,7,0,0.,12.0,0.,12.0,0.,12.0,0.,12.0
1986-01-26 09:46:16.400 ,7,0,0.,12.0,0.,12.0,0.,12.0,0.,12.0
1986-01-26 09:46:28.400 ,7,1,0.,12.0,0.,12.0,0.,12.0,0.,12.0
1986-01-26 09:46:40.400 ,7,1,0.,12.0,0.,12.0,0.,12.0,0.,12.0
1986-01-26 09:46:52.400 ,7,0,0.,12.0,0.,12.0,0.,12.0,0.,12.0
1986-01-26 09:47:04.400 ,7,0,0.,12.0,0.,12.0,0.,12.0,0.,12.0
1986-01-26 09:47:16.400 ,6,1,0.,12.0,0.,12.0,0.,12.0,0.,12.0
1986-01-26 09:47:28.400 ,6,1,0.,12.0,0.,12.0,0.,12.0,0.,12.0
1986-01-26 09:47:40.400 ,6,0,0.,12.0,0.,12.0,0.,12.0,0.,12.0
1986-01-26 09:47:52.400 ,6,0,0.,12.0,0.,12.0,0.,12.0,0.,12.0
1986-01-26 09:48:04.400 ,5,1,0.,12.0,0.,12.0,0.,12.0,0.,12.0
1986-01-26 09:48:16.400 ,5,1,0.,12.0,0.,12.0,0.,12.0,0.,12.0
1986-01-26 09:48:28.400 ,5,0,0.,12.0,0.,12.0,0.,12.0,0.,12.0
1986-01-26 09:48:40.400 ,5,0,0.,12.0,0.,12.0,0.,12.0,0.,12.0
1986-01-26 09:48:52.400 ,4,1,0.,12.0,0.,12.0,0.,12.0,0.,12.0
1986-01-26 09:49:04.400 ,4,1,0.,12.0,0.,12.0,0.,12.0,0.,12.0
1986-01-26 09:49:16.400 ,4,0,0.,12.0,0.,12.0,0.,12.0,0.,12.0
1986-01-26 09:49:28.400 ,4,0,0.,12.0,0.,12.0,0.,12.0,0.,12.0
1986-01-26 09:49:40.400 ,3,1,0.,12.0,0.,12.0,0.,12.0,0.,12.0
1986-01-26 09:49:52.400 ,3,1,0.,12.0,0.,12.0,0.,12.0,0.,12.0
1986-01-26 09:50:04.400 ,3,0,0.,12.0,0.,12.0,0.,12.0,0.,12.0
1986-01-26 09:50:16.400 ,3,0,0.,12.0,0.,12.0,0.,12.0,0.,12.0
1986-01-26 09:50:28.400 ,2,1,0.,12.0,0.,12.0,0.,12.0,0.,12.0
1986-01-26 09:50:40.400 ,2,1,0.,12.0,0.,12.0,0.,12.0,0.,12.0
1986-01-26 09:50:52.400 ,2,0,0.,12.0,0.,12.0,0.,12.0,0.,12.0
1986-01-26 09:51:04.400 ,2,0,0.,12.0,0.,12.0,0.,12.0,0.,12.0
1986-01-26 09:51:16.400 ,1,1,0.,12.0,0.,12.0,0.,12.0,0.,12.0
1986-01-26 09:51:28.400 ,1,1,0.,12.0,0.,12.0,0.,12.0,0.,12.0
1986-01-26 09:51:40.400 ,1,0,0.,12.0,0.,12.0,0.,12.0,0.,12.0
1986-01-26 09:51:52.400 ,1,0,0.,12.0,0.,12.0,0.,12.0,0.,12.0
1986-01-26 09:52:04.400 ,0,1,0.,12.0,0.,12.0,0.,12.0,0.,12.0
1986-01-26 09:52:16.400 ,0,1,0.,12.0,0.,12.0,0.,12.0,0.,12.0
1986-01-26 09:52:28.400 ,0,0,0.,12.0,0.,12.0,0.,12.0,0.,12.0
1986-01-26 09:52:40.400 ,0,0,0.,12.0,0.,12.0,0.,12.0,0.,12.0
1986-01-26 09:52:52.400 ,0,1,0.,12.0,0.,12.0,0.,12.0,0.,12.0
1986-01-26 09:53:04.400 ,0,1,0.,12.0,0.,12.0,0.,12.0,0.,12.0
1986-01-26 09:53:16.400 ,0,0,0.,12.0,0.,12.0,0.,12.0,0.,12.0
1986-01-26 09:53:28.400 ,0,0,0.,12.0,0.,12.0,0.,12.0,0.,12.0
1986-01-26 09:53:40.400 ,1,1,0.,12.0,0.,12.0,0.,12.0,0.,12.0
1986-01-26 09:53:52.400 ,1,1,0.,12.0,0.,12.0,0.,12.0,0.,12.0
1986-01-26 09:54:04.400 ,1,0,0.,12.0,0.,12.0,0.,12.0,0.,12.0
1986-01-26 09:54:16.400 ,1,0,0.,12.0,0.,12.0,0.,12.0,0.,12.0
1986-01-26 09:54:28.400 ,2,1,0.,12.0,0.,12.0,0.,12.0,0.,12.0
1986-01-26 09:54:40.400 ,2,1,0.,12.0,0.,12.0,0.,12.0,0.,12.0
1986-01-26 09:54:52.400 ,2,0,0.,12.0,0.,12.0,0.,12.0,0.,12.0
1986-01-26 09:55:04.400 ,2,0,0.,12.0,0.,12.0,0.,12.0,0.,12.0
1986-01-26 09:55:16.400 ,3,1,0.,12.0,0.,12.0,0.,12.0,0.,12.0
1986-01-26 09:55:28.400 ,3,1,0.,12.0,0.,12.0,0.,12.0,0.,12.0
1986-01-26 09:55:40.400 ,3,0,0.,12.0,0.,12.0,0.,12.0,0.,12.0
1986-01-26 09:55:52.400 ,3,0,0.,12.0,0.,12.0,0.,12.0,0.,12.0
1986-01-26 09:56:04.400 ,4,1,0.,12.0,0.,12.0,0.,12.0,0.,12.0
1986-01-26 09:56:16.400 ,4,1,0.,12.0,0.,12.0,0.,12.0,0.,12.0
1986-01-26 09:56:28.400 ,4,0,0.,12.0,0.,12.0,0.,12.0,0.,12.0
1986-01-26 09:56:40.400 ,4,0,0.,12.0,0.,12.0,0.,12.0,0.,12.0
1986-01-26 09:56:52.400 ,5,1,0.,12.0,0.,12.0,0.,12.0,0.,12.0
1986-01-26 09:57:04.400 ,5,1,0.,12.0,0.,12.0,0.,12.0,0.,12.0
1986-01-26 09:57:16.400 ,5,0,0.,12.0,0.,12.0,0.,12.0,0.,12.0
1986-01-26 09:57:28.400 ,5,0,0.,12.0,0.,12.0,0.,12.0,0.,12.0
1986-01-26 09:57:40.400 ,6,1,0.,12.0,0.,12.0,0.,12.0,0.,12.0
1986-01-26 09:57:52.400 ,6,1,0.,12.0,0.,12.0,0.,12.0,0.,12.0
1986-01-26 09:58:04.400 ,6,0,0.,12.0,0.,12.0,0.,12.0,0.,12.0
1986-01-26 09:58:16.400 ,6,0,0.,12.0,0.,12.0,0.,12.0,0.,12.0
1986-01-26 09:58:28.400 ,7,1,0.,12.0,0.,12.0,0.,12.0,0.,12.0
1986-01-26 09:58:40.400 ,7,1,0.,12.0,0.,12.0,0.,12.0,0.,12.0
1986-01-26 09:58:52.400 ,7,0,0.,12.0,0.,12.0,0.,12.0,0.,12.0
1986-01-26 09:59:04.400 ,7,0,0.,12.0,0.,12.0,0.,12.0,0.,12.0
1986-01-26 09:59:16.400 ,7,1,0.,12.0,0.,12.0,0.,12.0,0.,12.0
1986-01-26 09:59:28.400 ,7,1,0.,12.0,0.,12.0,0.,12.0,0.,12.0
1986-01-26 09:59:40.400 ,7,0,0.,12.0,0.,12.0,0.,12.0,0.,12.0
1986-01-26 09:59:52.400 ,7,0,0.,12.0,0.,12.0,0.,12.0,0.,12.0
1986-01-26 10:00:04.400 ,6,1,0.,12.0,0.,12.0,0.,12.0,0.,12.0
1986-01-26 10:00:16.400 ,6,1,0.,12.0,0.,12.0,0.,12.0,0.,12.0
1986-01-26 10:00:28.400 ,6,0,0.,12.0,0.,12.0,0.,12.0,0.,12.0
1986-01-26 10:00:40.400 ,6,0,0.,12.0,0.,12.0,0.,12.0,0.,12.0
1986-01-26 10:00:52.400 ,5,1,0.,12.0,0.,12.0,0.,12.0,0.,12.0
1986-01-26 10:01:04.400 ,5,1,0.,12.0,0.,12.0,0.,12.0,0.,12.0
1986-01-26 10:01:16.400 ,5,0,0.,12.0,0.,12.0,0.,12.0,0.,12.0
1986-01-26 10:01:28.400 ,5,0,0.,12.0,0.,12.0,0.,12.0,0.,12.0
1986-01-26 10:01:40.400 ,4,1,0.,12.0,0.,12.0,0.,12.0,0.,12.0
1986-01-26 10:01:52.400 ,4,1,0.,12.0,0.,12.0,0.,12.0,0.,12.0
1986-01-26 10:02:04.400 ,4,0,0.,12.0,0.,12.0,0.,12.0,0.,12.0
1986-01-26 10:02:16.400 ,4,0,0.,12.0,0.,12.0,0.,12.0,0.,12.0
1986-01-26 10:02:28.400 ,3,1,0.,12.0,0.,12.0,0.,12.0,0.,12.0
1986-01-26 10:02:40.400 ,3,1,0.,12.0,0.,12.0,0.,12.0,0.,12.0
1986-01-26 10:02:52.400 ,3,0,0.,12.0,0.,12.0,0.,12.0,0.,12.0
1986-01-26 10:03:04.400 ,3,0,0.,12.0,0.,12.0,0.,12.0,0.,12.0
1986-01-26 10:03:16.400 ,2,1,0.,12.0,0.,12.0,0.,12.0,0.,12.0
1986-01-26 10:03:28.400 ,2,1,0.,12.0,0.,12.0,0.,12.0,0.,12.0
1986-01-26 10:03:40.400 ,2,0,0.,12.0,0.,12.0,0.,12.0,0.,12.0
1986-01-26 10:03:52.400 ,2,0,0.,12.0,0.,12.0,0.,12.0,0.,12.0
1986-01-26 10:04:04.400 ,1,1,0.,12.0,0.,12.0,0.,12.0,0.,12.0
1986-01-26 10:04:16.400 ,1,1,0.,12.0,0.,12.0,0.,12.0,0.,12.0
1986-01-26 10:04:28.400 ,1,0,0.,12.0,0.,12.0,0.,12.0,0.,12.0
1986-01-26 10:04:40.400 ,1,0,0.,12.0,0.,12.0,0.,12.0,0.,12.0
1986-01-26 10:04:52.400 ,0,1,0.,12.0,0.,12.0,0.,12.0,0.,12.0
1986-01-26 10:05:04.400 ,0,1,0.,12.0,0.,12.0,0.,12.0,0.,12.0
1986-01-26 10:05:16.400 ,0,0,0.,12.0,0.,12.0,0.,12.0,0.,12.0
1986-01-26 10:05:28.400 ,0,0,0.,12.0,0.,12.0,0.,12.0,0.,12.0
1986-01-26 10:05:40.400 ,0,1,0.,12.0,0.,12.0,0.,12.0,0.,12.0
1986-01-26 10:05:52.400 ,0,1,0.,12.0,0.,12.0,0.,12.0,0.,12.0
1986-01-26 10:06:04.400 ,0,0,0.,12.0,0.,12.0,0.,12.0,0.,12.0
1986-01-26 10:06:16.400 ,0,0,0.,12.0,0.,12.0,0.,12.0,0.,12.0
1986-01-26 10:06:28.400 ,1,1,0.,12.0,0.,12.0,0.,12.0,0.,12.0
1986-01-26 10:06:40.400 ,1,1,0.,12.0,0.,12.0,0.,12.0,0.,12.0
1986-01-26 10:06:52.400 ,1,0,0.,12.0,0.,12.0,0.,12.0,0.,12.0
1986-01-26 10:07:04.400 ,1,0,0.,12.0,0.,12.0,0.,12.0,0.,12.0
1986-01-26 10:07:16.400 ,2,1,0.,12.0,0.,12.0,0.,12.0,0.,12.0
1986-01-26 10:07:28.400 ,2,1,0.,12.0,0.,12.0,0.,12.0,0.,12.0
1986-01-26 10:07:40.400 ,2,0,0.,12.0,0.,12.0,0.,12.0,0.,12.0
1986-01-26 10:07:52.400 ,2,0,0.,12.0,0.,12.0,0.,12.0,0.,12.0
1986-01-26 10:08:04.400 ,3,1,0.,12.0,0.,12.0,0.,12.0,0.,12.0
1986-01-26 10:08:16.400 ,3,1,0.,12.0,0.,12.0,0.,12.0,0.,12.0
1986-01-26 10:08:28.400 ,3,0,0.,12.0,0.,12.0,0.,12.0,0.,12.0
1986-01-26 10:08:40.400 ,3,0,0.,12.0,0.,12.0,0.,12.0,0.,12.0
1986-01-26 10:08:52.400 ,4,1,0.,12.0,0.,12.0,0.,12.0,0.,12.0
1986-01-26 10:09:04.400 ,4,1,0.,12.0,0.,12.0,0.,12.0,0.,12.0
1986-01-26 10:09:16.400 ,4,0,0.,12.0,0.,12.0,0.,12.0,0.,12.0
1986-01-26 10:09:28.400 ,4,0,0.,12.0,0.,12.0,0.,12.0,0.,12.0
1986-01-26 10:09:40.400 ,5,1,0.,12.0,0.,12.0,0.,12.0,0.,12.0
1986-01-26 10:09:52.400 ,5,1,0.,12.0,0.,12.0,0.,12.0,0.,12.0
1986-01-26 10:10:04.400 ,0,0,0.,12.0,0.,12.0,0.,12.0,0.,12.0
1986-01-26 10:10:16.400 ,0,0,0.,12.0,0.,12.0,0.,12.0,0.,12.0
1986-01-26 10:10:54.200 ,0,0,0.,12.0,0.,12.0,0.,12.0,0.,12.0
1986-01-26 10:11:06.200 ,0,0,0.,12.0,0.,12.0,0.,12.0,0.,12.0
1986-01-26 10:11:16.400 ,7,1,0.,12.0,0.,12.0,0.,12.0,0.,12.0
1986-01-26 10:11:28.400 ,7,1,0.,12.0,0.,12.0,0.,12.0,0.,12.0
1986-01-26 10:11:40.400 ,7,0,0.,12.0,0.,12.0,0.,12.0,0.,12.0
1986-01-26 10:11:52.400 ,7,0,0.,12.0,0.,12.0,0.,12.0,0.,12.0
1986-01-26 10:12:04.400 ,7,1,0.,12.0,0.,12.0,0.,12.0,0.,12.0
1986-01-26 10:12:16.400 ,7,1,0.,12.0,0.,12.0,0.,12.0,0.,12.0
1986-01-26 10:12:28.400 ,7,0,0.,12.0,0.,12.0,0.,12.0,0.,12.0
1986-01-26 10:12:40.400 ,7,0,0.,12.0,0.,12.0,0.,12.0,0.,12.0
1986-01-26 10:12:52.400 ,6,1,0.,12.0,0.,12.0,0.,12.0,0.,12.0
1986-01-26 10:13:04.400 ,6,1,0.,12.0,0.,12.0,0.,12.0,0.,12.0
1986-01-26 10:13:16.400 ,6,0,0.,12.0,0.,12.0,0.,12.0,0.,12.0
1986-01-26 10:13:28.400 ,6,0,0.,12.0,0.,12.0,0.,12.0,0.,12.0
1986-01-26 10:13:40.400 ,5,1,0.,12.0,0.,12.0,0.,12.0,0.,12.0
1986-01-26 10:13:52.400 ,5,1,0.,12.0,0.,12.0,0.,12.0,0.,12.0
1986-01-26 10:14:04.400 ,5,0,0.,12.0,0.,12.0,0.,12.0,0.,12.0
1986-01-26 10:14:16.400 ,5,0,0.,12.0,0.,12.0,0.,12.0,0.,12.0
1986-01-26 10:14:28.400 ,4,1,0.,12.0,0.,12.0,0.,12.0,0.,12.0
1986-01-26 10:14:40.400 ,4,1,0.,12.0,0.,12.0,0.,12.0,0.,12.0
1986-01-26 10:14:52.400 ,4,0,0.,12.0,0.,12.0,0.,12.0,0.,12.0
1986-01-26 10:15:04.400 ,4,0,0.,12.0,0.,12.0,0.,12.0,0.,12.0
1986-01-26 10:15:16.400 ,0,0,0.,12.0,0.,12.0,0.,12.0,0.,12.0
1986-01-26 10:15:28.400 ,0,0,,0,,0,,0,,0
1986-01-26 10:15:40.400 ,0,0,,0,,0,,0,,0
1986-01-26 10:15:52.400 ,0,0,,0,,0,,0,,0
1986-01-26 10:15:40.400 ,3,0,0.,12.0,0.,12.0,0.,12.0,0.,12.0
1986-01-26 10:15:52.400 ,3,0,0.,12.0,0.,12.0,0.,12.0,0.,12.0
1986-01-26 10:16:04.400 ,2,1,0.,12.0,0.,12.0,0.,12.0,0.,12.0
1986-01-26 10:16:16.400 ,2,1,0.,12.0,0.,12.0,0.,12.0,0.,12.0
1986-01-26 10:16:28.400 ,2,0,0.,12.0,0.,12.0,0.,12.0,0.,12.0
1986-01-26 10:16:40.400 ,2,0,0.,12.0,0.,12.0,0.,12.0,0.,12.0
1986-01-26 10:16:52.400 ,1,1,0.,12.0,0.,12.0,0.,12.0,0.,12.0
1986-01-26 10:17:04.400 ,1,1,0.,12.0,0.,12.0,0.,12.0,0.,12.0
1986-01-26 10:17:16.400 ,1,0,0.,12.0,0.,12.0,0.,12.0,0.,12.0
1986-01-26 10:17:28.400 ,1,0,0.,12.0,0.,12.0,0.,12.0,0.,12.0
1986-01-26 10:17:40.400 ,0,1,0.,12.0,0.,12.0,0.,12.0,0.,12.0